This is the latest recevied weather packets stored in our database for station/object N6WDO. If no packets are shown the sender has not sent any weather packets the latest 10 day(s).
| Time | Temp. | Humidity | Pressure | Rain* | Wind** | Luminosity | Snow |
|---|---|---|---|---|---|---|---|
| 1778001537 | 12.78° C | 89% | 1015.9 hPa | 0 mm | - | 235 W/m² | - |
| 1778001234 | 12.22° C | 88% | 1015.8 hPa | 0 mm | - | 241 W/m² | - |
| 1778000931 | 12.22° C | 89% | 1015.9 hPa | 0 mm | - | 273 W/m² | - |
| 1778000628 | 12.22° C | 89% | 1015.9 hPa | 0 mm | - | 257 W/m² | - |
| 1778000323 | 12.22° C | 90% | 1015.8 hPa | 0 mm | - | 238 W/m² | - |
| 1778000019 | 12.22° C | 92% | 1015.7 hPa | 0 mm | - | 296 W/m² | - |
| 1777999715 | 12.22° C | 92% | 1015.6 hPa | 0 mm | - | 225 W/m² | - |
| 1777999411 | 12.22° C | 93% | 1015.6 hPa | 0 mm | - | 211 W/m² | - |
| 1777999110 | 12.22° C | 93% | 1015.7 hPa | 0 mm | - | 288 W/m² | - |
| 1777998808 | 11.67° C | 95% | 1015.4 hPa | 0 mm | - | 283 W/m² | - |
| 1777998506 | 11.11° C | 97% | 1015.6 hPa | 0 mm | - | 268 W/m² | - |
| 1777998202 | 11.11° C | 97% | 1015.7 hPa | 0 mm | - | 271 W/m² | - |
| 1777997900 | 11.11° C | 97% | 1015.6 hPa | 0 mm | - | 249 W/m² | - |
| 1777997597 | 10.56° C | 98% | 1015.7 hPa | 0 mm | - | 181 W/m² | - |
| 1777997294 | 10.56° C | 98% | 1015.5 hPa | 0 mm | - | 143 W/m² | - |
| 1777996992 | 10.56° C | 98% | 1015.7 hPa | 0 mm | - | 110 W/m² | - |
| 1777996688 | 10.56° C | 98% | 1015.5 hPa | 0 mm | - | 115 W/m² | - |
| 1777996384 | 10.56° C | 98% | 1015.3 hPa | 0 mm | - | 119 W/m² | - |
| 1777996080 | 10.56° C | 98% | 1015.5 hPa | 0 mm | - | 103 W/m² | - |
| 1777995777 | 10.56° C | 98% | 1015.5 hPa | 0 mm | - | 104 W/m² | - |
| 1777995473 | 10.56° C | 98% | 1015.5 hPa | 0 mm | - | 96 W/m² | - |
| 1777995170 | 10.56° C | 99% | 1015.5 hPa | 0 mm | - | 87 W/m² | - |
| 1777994867 | 10.56° C | 99% | 1015.5 hPa | 0 mm | - | 82 W/m² | - |
| 1777994564 | 10.56° C | 99% | 1015.2 hPa | 0 mm | - | 66 W/m² | - |
| 1777994258 | 10.56° C | 99% | 1015.3 hPa | 1.78 mm | - | 57 W/m² | - |
* Rain latest hour (hover to see other rain measurements)
** Current wind speed in m/s (hover to see current wind gust speed)